sat.trackr.live / text

‹ back to catalog

STARLINK-11657 [DTC]

NORAD 63558 · 2025-075L

PAYLOAD ACTIVE UNKNOWN

§ Identity

Operator
Country
US
Launch date
2025-04-13
Launch site
AFETR
Launch vehicle
Mass (kg)
RCS (m²)

Purposes: comms

External: N2YO · Heavens-Above · Gunter

§ Orbital elements

Epoch: 2026-05-25T03:43:13.353024Z

Period
91.67 min
Inclination
43.0004°
Eccentricity
0.0002482
Mean motion
15.70934371 rev/d
Perigee alt
354.6 km
Apogee alt
357.9 km
Semi-major
6,734.4 km
B*
1.8771e-3
RAAN
52.9799°
Arg perigee
267.6778°
Mean anomaly
92.3805°
Rev number
6,527

§ Raw data

STARLINK-11657 [DTC]1 63558U 25075L   26145.15501566  .00248750  00000+0  18771-2 0  99942 63558  43.0004  52.9799 0002482 267.6778  92.3805 15.70934371 65277

JSON: /api/v1/satellites/63558 · /tle

For live sub-satellite position, see the globe view (requires WebGL).

§ Visibility from observer

Set your observer location to see the next 7 days of passes ≥ 10°. The values pass through the URL so the page stays shareable.

No JS? Fill the form by hand. The geolocation button needs JavaScript.